| time (UTC) | temp F | wind direction | speed MPH | gust MPH | rain 1hr in | rain 24hr in | rain mn in | humidity % | barometer mb |
| 20260504081509 | 68 | 197 | 0.0 | 0.0 | 0.00 | 0.00 | 0.00 | 47 | 1006.1 |
| 20260504044545 | 71 | 217 | 0.0 | 1.0 | 0.00 | 0.00 | 0.00 | 42 | 1008.4 |
| 20260504043041 | 71 | 360 | 0.0 | 0.0 | 0.00 | 0.00 | 0.00 | 41 | 1008.3 |
| 20260504041541 | 71 | 236 | 0.0 | 0.0 | 0.00 | 0.00 | 0.00 | 40 | 1008.3 |
| 20260504040051 | 72 | 270 | 0.0 | 1.0 | 0.00 | 0.00 | 0.00 | 40 | 1008.5 |
| 20260504034555 | 72 | 321 | 0.0 | 0.0 | 0.00 | 0.00 | 0.00 | 39 | 1008.6 |
| 20260504033037 | 72 | 66 | 0.0 | 0.0 | 0.00 | 0.00 | 0.00 | 39 | 1008.6 |
| 20260504031537 | 73 | 295 | 0.0 | 0.0 | 0.00 | 0.00 | 0.00 | 38 | 1008.6 |
| 20260504030037 | 73 | 37 | 0.0 | 0.0 | 0.00 | 0.00 | 0.00 | 38 | 1008.7 |
| 20260504024534 | 74 | 229 | 0.0 | 1.0 | 0.00 | 0.00 | 0.00 | 37 | 1008.6 |
| 20260504023033 | 74 | 214 | 0.0 | 0.0 | 0.00 | 0.00 | 0.00 | 36 | 1008.5 |
| 20260504021532 | 75 | 291 | 0.0 | 0.0 | 0.00 | 0.00 | 0.00 | 36 | 1008.4 |
| 20260504020033 | 75 | 255 | 0.0 | 0.0 | 0.00 | 0.00 | 0.00 | 35 | 1008.4 |
| 20260504014534 | 76 | 279 | 0.0 | 0.0 | 0.00 | 0.00 | 0.00 | 34 | 1008.2 |
| 20260504013040 | 77 | 67 | 0.0 | 0.0 | 0.00 | 0.00 | 0.00 | 32 | 1008.1 |
| 20260504011531 | 77 | 113 | 0.0 | 0.0 | 0.00 | 0.00 | 0.00 | 31 | 1008.0 |
| 20260504010029 | 78 | 342 | 0.0 | 0.0 | 0.00 | 0.00 | 0.00 | 29 | 1008.1 |
| 20260504004529 | 79 | 259 | 0.0 | 0.0 | 0.00 | 0.00 | 0.00 | 28 | 1008.1 |
| 20260504003029 | 81 | 293 | 0.0 | 0.0 | 0.00 | 0.00 | 0.00 | 27 | 1008.3 |
| 20260504001527 | 82 | 244 | 0.0 | 0.0 | 0.00 | 0.00 | 0.00 | 26 | 1008.3 |
| 20260504000024 | 82 | 238 | 0.0 | 0.0 | 0.00 | 0.00 | 0.00 | 26 | 1008.5 |
| 20260503234523 | 82 | 5 | 0.0 | 1.0 | 0.00 | 0.00 | 0.00 | 25 | 1008.7 |
| 20260503233023 | 83 | 285 | 0.0 | 0.0 | 0.00 | 0.00 | 0.00 | 24 | 1008.7 |
| 20260503231522 | 83 | 258 | 0.0 | 0.0 | 0.00 | 0.00 | 0.00 | 24 | 1008.8 |
| 20260503230026 | 83 | 263 | 0.0 | 1.0 | 0.00 | 0.00 | 0.00 | 24 | 1008.8 |
| 20260503224520 | 84 | 281 | 0.0 | 1.0 | 0.00 | 0.00 | 0.00 | 24 | 1008.8 |
| 20260503223120 | 84 | 68 | 0.0 | 0.0 | 0.00 | 0.00 | 0.00 | 24 | 1008.9 |
| 20260503221517 | 84 | 269 | 0.0 | 0.0 | 0.00 | 0.00 | 0.00 | 24 | 1009.1 |
| 20260503220018 | 84 | 233 | 0.0 | 1.0 | 0.00 | 0.00 | 0.00 | 25 | 1009.4 |
| 20260503214514 | 85 | 280 | 0.0 | 0.0 | 0.00 | 0.00 | 0.00 | 26 | 1009.5 |
| 20260503213014 | 85 | 67 | 0.0 | 0.0 | 0.00 | 0.00 | 0.00 | 25 | 1009.7 |
| 20260503211511 | 85 | 229 | 0.0 | 1.0 | 0.00 | 0.00 | 0.00 | 23 | 1010.1 |
| 20260503210010 | 85 | 268 | 0.0 | 0.0 | 0.00 | 0.00 | 0.00 | 25 | 1010.2 |
| 20260503204506 | 85 | 261 | 0.0 | 1.0 | 0.00 | 0.00 | 0.00 | 25 | 1010.5 |
| 20260503203004 | 85 | 28 | 0.0 | 0.0 | 0.00 | 0.00 | 0.00 | 24 | 1010.7 |
| 20260503201505 | 85 | 288 | 0.0 | 0.0 | 0.00 | 0.00 | 0.00 | 23 | 1011.0 |
| 20260503200101 | 84 | 257 | 0.0 | 0.0 | 0.00 | 0.00 | 0.00 | 25 | 1011.3 |
| 20260503200002 | 84 | 265 | 0.0 | 0.0 | 0.00 | 0.00 | 0.00 | 26 | 1011.3 |
| 20260503194600 | 85 | 250 | 0.0 | 0.0 | 0.00 | 0.00 | 0.00 | 24 | 1011.7 |
| 20260503193110 | 84 | 281 | 0.0 | 0.0 | 0.00 | 0.00 | 0.00 | 24 | 1012.0 |
| 20260503191558 | 84 | 228 | 0.0 | 1.0 | 0.00 | 0.00 | 0.00 | 23 | 1012.2 |
| 20260503190106 | 84 | 287 | 0.0 | 0.0 | 0.00 | 0.00 | 0.00 | 23 | 1012.2 |
| 20260503184552 | 84 | 303 | 0.0 | 1.0 | 0.00 | 0.00 | 0.00 | 24 | 1012.4 |
| 20260503183059 | 84 | 266 | 0.0 | 0.0 | 0.00 | 0.00 | 0.00 | 26 | 1012.6 |
| 20260503181546 | 84 | 245 | 0.0 | 0.0 | 0.00 | 0.00 | 0.00 | 28 | 1012.8 |
| 20260503180053 | 83 | 207 | 0.0 | 0.0 | 0.00 | 0.00 | 0.00 | 28 | 1013.1 |
| 20260503174542 | 83 | 287 | 0.0 | 0.0 | 0.00 | 0.00 | 0.00 | 32 | 1013.2 |
| 20260503173056 | 82 | 207 | 0.0 | 0.0 | 0.00 | 0.00 | 0.00 | 33 | 1013.6 |
| 20260503171542 | 81 | 225 | 0.0 | 0.0 | 0.00 | 0.00 | 0.00 | 36 | 1013.9 |
| 20260503140113 | 65 | 239 | 0.0 | 0.0 | 0.00 | 0.00 | 0.00 | 55 | 1014.8 |